| time (UTC) | temp C | wind direction | speed KPH | gust KPH | rain 1hr cm | rain 24hr cm | rain mn cm | humidity % | barometer mb |
| 20260507013044 | 15 | 287 | 8.0 | 24.1 | 0.00 | 0.00 | 0.00 | 80 | 1017.5 |
| 20260507012532 | 15 | 245 | 9.7 | 24.1 | 0.00 | 0.00 | 0.00 | 80 | 1017.6 |
| 20260507012030 | 15 | 266 | 8.0 | 20.9 | 0.00 | 0.00 | 0.00 | 79 | 1017.5 |
| 20260507011548 | 15 | 276 | 8.0 | 20.9 | 0.00 | 0.00 | 0.00 | 78 | 1017.5 |
| 20260507011031 | 16 | 196 | 9.7 | 20.9 | 0.00 | 0.00 | 0.00 | 77 | 1017.5 |
| 20260507010529 | 16 | 259 | 8.0 | 19.3 | 0.00 | 0.00 | 0.00 | 76 | 1017.4 |
| 20260507010046 | 16 | 275 | 8.0 | 16.1 | 0.00 | 0.00 | 0.00 | 76 | 1017.4 |
| 20260507005532 | 16 | 240 | 6.4 | 19.3 | 0.00 | 0.00 | 0.00 | 75 | 1017.4 |
| 20260507005032 | 17 | 229 | 8.0 | 19.3 | 0.00 | 0.00 | 0.00 | 75 | 1017.4 |
| 20260507004542 | 17 | 219 | 6.4 | 16.1 | 0.00 | 0.00 | 0.00 | 74 | 1017.4 |
| 20260507004029 | 17 | 273 | 6.4 | 17.7 | 0.00 | 0.00 | 0.00 | 75 | 1017.4 |
| 20260507003529 | 17 | 290 | 8.0 | 17.7 | 0.00 | 0.00 | 0.00 | 74 | 1017.4 |
| 20260507003039 | 17 | 236 | 8.0 | 17.7 | 0.00 | 0.00 | 0.00 | 74 | 1017.5 |
| 20260507002529 | 17 | 254 | 8.0 | 17.7 | 0.00 | 0.00 | 0.00 | 73 | 1017.4 |
| 20260507002029 | 18 | 237 | 8.0 | 17.7 | 0.00 | 0.00 | 0.00 | 72 | 1017.3 |
| 20260507001546 | 18 | 286 | 6.4 | 17.7 | 0.00 | 0.00 | 0.00 | 72 | 1017.5 |
| 20260507001028 | 18 | 212 | 6.4 | 16.1 | 0.00 | 0.00 | 0.00 | 72 | 1017.4 |
| 20260507000529 | 18 | 244 | 8.0 | 16.1 | 0.00 | 0.00 | 0.00 | 71 | 1017.4 |
| 20260507000045 | 18 | 249 | 8.0 | 16.1 | 0.00 | 0.00 | 0.00 | 70 | 1017.4 |
| 20260506235530 | 19 | 277 | 6.4 | 17.7 | 0.00 | 0.00 | 0.00 | 70 | 1017.5 |
| 20260506235029 | 19 | 300 | 6.4 | 17.7 | 0.00 | 0.00 | 0.00 | 69 | 1017.6 |
| 20260506234553 | 19 | 292 | 4.8 | 16.1 | 0.00 | 0.00 | 0.00 | 68 | 1017.5 |
| 20260506234031 | 19 | 280 | 6.4 | 16.1 | 0.00 | 0.00 | 0.00 | 69 | 1017.5 |
| 20260506233530 | 19 | 306 | 4.8 | 16.1 | 0.00 | 0.00 | 0.00 | 69 | 1017.5 |
| 20260506233049 | 19 | 271 | 6.4 | 16.1 | 0.00 | 0.00 | 0.00 | 68 | 1017.6 |
| 20260506232529 | 19 | 219 | 4.8 | 16.1 | 0.00 | 0.00 | 0.00 | 70 | 1017.6 |
| 20260506232029 | 19 | 294 | 4.8 | 19.3 | 0.00 | 0.00 | 0.00 | 70 | 1017.7 |
| 20260506231552 | 18 | 297 | 8.0 | 19.3 | 0.00 | 0.00 | 0.00 | 71 | 1017.7 |
| 20260506231029 | 18 | 300 | 8.0 | 17.7 | 0.00 | 0.00 | 0.00 | 71 | 1017.7 |
| 20260506230533 | 19 | 293 | 8.0 | 17.7 | 0.00 | 0.00 | 0.00 | 69 | 1017.8 |
| 20260506230038 | 19 | 259 | 8.0 | 17.7 | 0.00 | 0.00 | 0.00 | 69 | 1017.7 |
| 20260506225529 | 20 | 249 | 6.4 | 17.7 | 0.00 | 0.00 | 0.00 | 70 | 1017.9 |
| 20260506225032 | 20 | 298 | 6.4 | 17.7 | 0.00 | 0.00 | 0.00 | 69 | 1018.0 |
| 20260506224541 | 20 | 307 | 8.0 | 17.7 | 0.00 | 0.00 | 0.00 | 69 | 1018.0 |
| 20260506224029 | 19 | 299 | 8.0 | 17.7 | 0.00 | 0.00 | 0.00 | 68 | 1018.0 |
| 20260506223530 | 20 | 293 | 8.0 | 19.3 | 0.00 | 0.00 | 0.00 | 67 | 1018.0 |
| 20260506223044 | 20 | 259 | 6.4 | 19.3 | 0.00 | 0.00 | 0.00 | 68 | 1018.0 |
| 20260506222530 | 20 | 292 | 8.0 | 19.3 | 0.00 | 0.00 | 0.00 | 66 | 1017.9 |
| 20260506222030 | 20 | 224 | 4.8 | 17.7 | 0.00 | 0.00 | 0.00 | 67 | 1018.0 |
| 20260506221546 | 20 | 286 | 6.4 | 17.7 | 0.00 | 0.00 | 0.00 | 67 | 1017.9 |
| 20260506221029 | 20 | 296 | 8.0 | 17.7 | 0.00 | 0.00 | 0.00 | 67 | 1018.1 |
| 20260506220529 | 20 | 311 | 8.0 | 17.7 | 0.00 | 0.00 | 0.00 | 66 | 1018.2 |
| 20260506220048 | 20 | 285 | 4.8 | 12.9 | 0.00 | 0.00 | 0.00 | 67 | 1018.3 |
| 20260506215529 | 20 | 336 | 6.4 | 11.3 | 0.00 | 0.00 | 0.00 | 63 | 1018.3 |
| 20260506215029 | 20 | 42 | 4.8 | 16.1 | 0.00 | 0.00 | 0.00 | 62 | 1018.3 |
| 20260506214547 | 20 | 0 | 4.8 | 16.1 | 0.00 | 0.00 | 0.00 | 64 | 1018.2 |
| 20260506214032 | 20 | 352 | 6.4 | 16.1 | 0.00 | 0.00 | 0.00 | 63 | 1018.3 |
| 20260506213533 | 20 | 20 | 6.4 | 14.5 | 0.00 | 0.00 | 0.00 | 64 | 1018.3 |
| 20260506213040 | 20 | 339 | 4.8 | 12.9 | 0.00 | 0.00 | 0.00 | 64 | 1018.3 |
| 20260506212529 | 20 | 0 | 4.8 | 12.9 | 0.00 | 0.00 | 0.00 | 63 | 1018.4 |
| 20260506212029 | 20 | 35 | 6.4 | 14.5 | 0.00 | 0.00 | 0.00 | 64 | 1018.4 |
| 20260506211539 | 20 | 24 | 4.8 | 14.5 | 0.00 | 0.00 | 0.00 | 62 | 1018.5 |
| 20260506211029 | 20 | 314 | 3.2 | 16.1 | 0.00 | 0.00 | 0.00 | 62 | 1018.7 |
| 20260506210529 | 20 | 9 | 3.2 | 16.1 | 0.00 | 0.00 | 0.00 | 62 | 1018.6 |
| 20260506210038 | 20 | 46 | 6.4 | 16.1 | 0.00 | 0.00 | 0.00 | 62 | 1018.7 |
| 20260506205533 | 20 | 344 | 4.8 | 14.5 | 0.00 | 0.00 | 0.00 | 62 | 1018.6 |
| 20260506205029 | 19 | 31 | 4.8 | 16.1 | 0.00 | 0.00 | 0.00 | 65 | 1018.7 |
| 20260506204540 | 19 | 18 | 6.4 | 16.1 | 0.00 | 0.00 | 0.00 | 64 | 1018.8 |
| 20260506204028 | 19 | 30 | 8.0 | 14.5 | 0.00 | 0.00 | 0.00 | 62 | 1018.8 |
| 20260506203531 | 19 | 339 | 8.0 | 14.5 | 0.00 | 0.00 | 0.00 | 63 | 1018.9 |
| 20260506203044 | 19 | 305 | 4.8 | 12.9 | 0.00 | 0.00 | 0.00 | 63 | 1019.1 |
| 20260506202529 | 19 | 336 | 4.8 | 14.5 | 0.00 | 0.00 | 0.00 | 65 | 1019.0 |
| 20260506202029 | 19 | 33 | 3.2 | 14.5 | 0.00 | 0.00 | 0.00 | 65 | 1019.0 |
| 20260506201543 | 19 | 34 | 4.8 | 14.5 | 0.00 | 0.00 | 0.00 | 67 | 1019.1 |
| 20260506201028 | 18 | 25 | 6.4 | 14.5 | 0.00 | 0.00 | 0.00 | 66 | 1019.1 |
| 20260506200529 | 19 | 343 | 4.8 | 14.5 | 0.00 | 0.00 | 0.00 | 67 | 1019.1 |
| 20260506200041 | 18 | 347 | 3.2 | 12.9 | 0.00 | 0.00 | 0.00 | 67 | 1019.2 |
| 20260506195531 | 18 | 317 | 4.8 | 12.9 | 0.00 | 0.00 | 0.00 | 68 | 1019.2 |
| 20260506195029 | 18 | 42 | 6.4 | 12.9 | 0.00 | 0.00 | 0.00 | 69 | 1019.3 |
| 20260506194538 | 18 | 350 | 3.2 | 12.9 | 0.00 | 0.00 | 0.00 | 67 | 1019.3 |
| 20260506194112 | 17 | 288 | 4.8 | 16.1 | 0.00 | 0.00 | 0.00 | 70 | 1019.3 |
| 20260506193528 | 18 | 296 | 4.8 | 16.1 | 0.00 | 0.00 | 0.00 | 70 | 1019.4 |
| 20260506193045 | 18 | 352 | 6.4 | 12.9 | 0.00 | 0.00 | 0.00 | 70 | 1019.5 |
| 20260506192529 | 17 | 0 | 6.4 | 12.9 | 0.00 | 0.00 | 0.00 | 70 | 1019.5 |
| 20260506192031 | 18 | 344 | 4.8 | 12.9 | 0.00 | 0.00 | 0.00 | 69 | 1019.5 |
| 20260506191543 | 17 | 355 | 4.8 | 17.7 | 0.00 | 0.00 | 0.00 | 72 | 1019.5 |
| 20260506191030 | 17 | 334 | 8.0 | 17.7 | 0.00 | 0.00 | 0.00 | 72 | 1019.6 |
| 20260506190530 | 17 | 41 | 6.4 | 16.1 | 0.00 | 0.00 | 0.00 | 71 | 1019.6 |
| 20260506190046 | 17 | 331 | 6.4 | 16.1 | 0.00 | 0.00 | 0.00 | 71 | 1019.6 |
| 20260506185530 | 17 | 308 | 4.8 | 16.1 | 0.00 | 0.00 | 0.00 | 72 | 1019.6 |
| 20260506185029 | 17 | 352 | 6.4 | 16.1 | 0.00 | 0.00 | 0.00 | 72 | 1019.6 |
| 20260506184549 | 17 | 13 | 4.8 | 16.1 | 0.00 | 0.00 | 0.00 | 72 | 1019.6 |
| 20260506184030 | 17 | 5 | 6.4 | 16.1 | 0.00 | 0.00 | 0.00 | 72 | 1019.6 |
| 20260506183529 | 17 | 44 | 3.2 | 12.9 | 0.00 | 0.00 | 0.00 | 73 | 1019.7 |
| 20260506183038 | 17 | 18 | 4.8 | 12.9 | 0.00 | 0.00 | 0.00 | 71 | 1019.7 |
| 20260506182528 | 17 | 0 | 1.6 | 9.7 | 0.00 | 0.00 | 0.00 | 71 | 1019.7 |
| 20260506182029 | 16 | 28 | 3.2 | 11.3 | 0.00 | 0.00 | 0.00 | 72 | 1019.8 |
| 20260506181538 | 16 | 22 | 4.8 | 11.3 | 0.00 | 0.00 | 0.00 | 73 | 1019.8 |
| 20260506181029 | 16 | 360 | 3.2 | 14.5 | 0.00 | 0.00 | 0.00 | 74 | 1019.7 |
| 20260506180529 | 16 | 33 | 1.6 | 14.5 | 0.00 | 0.00 | 0.00 | 73 | 1019.7 |
| 20260506180048 | 15 | 19 | 6.4 | 14.5 | 0.00 | 0.00 | 0.00 | 74 | 1019.8 |
| 20260506175528 | 16 | 33 | 3.2 | 12.9 | 0.00 | 0.00 | 0.00 | 73 | 1019.7 |
| 20260506175029 | 16 | 30 | 4.8 | 12.9 | 0.00 | 0.00 | 0.00 | 74 | 1019.7 |
| 20260506174543 | 16 | 12 | 3.2 | 8.0 | 0.00 | 0.00 | 0.00 | 74 | 1019.7 |
| 20260506174032 | 15 | 36 | 3.2 | 8.0 | 0.00 | 0.00 | 0.00 | 74 | 1019.8 |
| 20260506173529 | 15 | 20 | 3.2 | 11.3 | 0.00 | 0.00 | 0.00 | 74 | 1019.8 |
| 20260506173121 | 16 | 32 | 3.2 | 11.3 | 0.00 | 0.00 | 0.00 | 74 | 1019.8 |
| 20260506172529 | 15 | 0 | 1.6 | 6.4 | 0.00 | 0.00 | 0.00 | 74 | 1019.8 |
| 20260506172030 | 16 | 5 | 1.6 | 6.4 | 0.00 | 0.00 | 0.00 | 75 | 1019.7 |
| 20260506171549 | 16 | 186 | 0.0 | 8.0 | 0.00 | 0.00 | 0.00 | 74 | 1019.8 |
| 20260506171031 | 16 | 0 | 0.0 | 8.0 | 0.00 | 0.00 | 0.00 | 77 | 1019.8 |
| 20260506170529 | 15 | 190 | 1.6 | 8.0 | 0.00 | 0.00 | 0.00 | 76 | 1019.9 |
| 20260506170042 | 15 | 0 | 0.0 | 0.0 | 0.00 | 0.00 | 0.00 | 78 | 1019.9 |
| 20260506165529 | 15 | 0 | 0.0 | 0.0 | 0.00 | 0.00 | 0.00 | 80 | 1019.8 |
| 20260506165029 | 14 | 0 | 0.0 | 0.0 | 0.00 | 0.00 | 0.00 | 80 | 1019.9 |
| 20260506164553 | 13 | 0 | 0.0 | 8.0 | 0.00 | 0.00 | 0.00 | 79 | 1019.8 |
| 20260506164029 | 13 | 0 | 0.0 | 8.0 | 0.00 | 0.00 | 0.00 | 81 | 1019.9 |
| 20260506163534 | 13 | 180 | 0.0 | 6.4 | 0.00 | 0.00 | 0.00 | 82 | 1019.9 |
| 20260506163044 | 13 | 0 | 0.0 | 6.4 | 0.00 | 0.00 | 0.00 | 82 | 1019.8 |
| 20260506162528 | 13 | 282 | 1.6 | 6.4 | 0.00 | 0.00 | 0.00 | 82 | 1019.8 |
| 20260506162033 | 13 | 0 | 0.0 | 3.2 | 0.00 | 0.00 | 0.00 | 82 | 1019.8 |
| 20260506161544 | 13 | 303 | 0.0 | 3.2 | 0.00 | 0.00 | 0.00 | 82 | 1019.9 |
| 20260506161029 | 13 | 0 | 0.0 | 4.8 | 0.00 | 0.00 | 0.00 | 82 | 1019.9 |
| 20260506160529 | 13 | 0 | 0.0 | 4.8 | 0.00 | 0.00 | 0.00 | 84 | 1019.9 |
| 20260506160045 | 12 | 0 | 0.0 | 6.4 | 0.00 | 0.00 | 0.00 | 83 | 1019.9 |
| 20260506155529 | 12 | 51 | 1.6 | 6.4 | 0.00 | 0.00 | 0.00 | 84 | 1019.9 |
| 20260506155029 | 12 | 309 | 1.6 | 4.8 | 0.00 | 0.00 | 0.00 | 84 | 1019.7 |
| 20260506154550 | 12 | 0 | 0.0 | 4.8 | 0.00 | 0.00 | 0.00 | 84 | 1019.8 |
| 20260506154031 | 12 | 0 | 0.0 | 6.4 | 0.00 | 0.00 | 0.00 | 85 | 1019.8 |
| 20260506153532 | 12 | 328 | 1.6 | 6.4 | 0.00 | 0.00 | 0.00 | 85 | 1019.8 |
| 20260506153043 | 12 | 319 | 1.6 | 4.8 | 0.00 | 0.00 | 0.00 | 85 | 1019.7 |
| 20260506152529 | 12 | 317 | 1.6 | 4.8 | 0.00 | 0.00 | 0.00 | 86 | 1019.7 |
| 20260506152029 | 12 | 316 | 1.6 | 6.4 | 0.00 | 0.00 | 0.00 | 86 | 1019.6 |
| 20260506151538 | 12 | 325 | 1.6 | 6.4 | 0.00 | 0.00 | 0.00 | 86 | 1019.7 |
| 20260506151030 | 12 | 290 | 0.0 | 0.0 | 0.00 | 0.00 | 0.00 | 87 | 1019.6 |
| 20260506150533 | 12 | 0 | 0.0 | 0.0 | 0.00 | 0.00 | 0.00 | 87 | 1019.6 |
| 20260506150046 | 12 | 0 | 0.0 | 0.0 | 0.00 | 0.00 | 0.00 | 88 | 1019.6 |
| 20260506145529 | 12 | 0 | 0.0 | 0.0 | 0.00 | 0.00 | 0.00 | 88 | 1019.6 |
| 20260506145029 | 12 | 0 | 0.0 | 0.0 | 0.00 | 0.00 | 0.00 | 88 | 1019.6 |
| 20260506144545 | 11 | 0 | 0.0 | 0.0 | 0.00 | 0.00 | 0.00 | 88 | 1019.6 |
| 20260506144029 | 11 | 0 | 0.0 | 0.0 | 0.00 | 0.00 | 0.00 | 88 | 1019.6 |
| 20260506143528 | 11 | 0 | 0.0 | 0.0 | 0.00 | 0.00 | 0.00 | 88 | 1019.7 |
| 20260506143044 | 11 | 0 | 0.0 | 0.0 | 0.00 | 0.00 | 0.00 | 89 | 1019.6 |
| 20260506142529 | 11 | 0 | 0.0 | 0.0 | 0.00 | 0.00 | 0.00 | 89 | 1019.5 |
| 20260506142029 | 11 | 0 | 0.0 | 0.0 | 0.00 | 0.00 | 0.00 | 89 | 1019.5 |
| 20260506141541 | 11 | 0 | 0.0 | 3.2 | 0.00 | 0.00 | 0.00 | 89 | 1019.4 |
| 20260506141029 | 11 | 0 | 0.0 | 3.2 | 0.00 | 0.00 | 0.00 | 89 | 1019.4 |
| 20260506140529 | 11 | 0 | 0.0 | 4.8 | 0.00 | 0.00 | 0.00 | 89 | 1019.3 |
| 20260506140048 | 11 | 0 | 0.0 | 4.8 | 0.00 | 0.00 | 0.00 | 89 | 1019.2 |
| 20260506135528 | 11 | 0 | 1.6 | 4.8 | 0.00 | 0.00 | 0.00 | 89 | 1019.2 |
| 20260506135028 | 11 | 295 | 1.6 | 6.4 | 0.00 | 0.00 | 0.00 | 89 | 1019.2 |
| 20260506134545 | 11 | 296 | 1.6 | 6.4 | 0.00 | 0.00 | 0.00 | 89 | 1019.1 |
| 20260506134029 | 11 | 298 | 1.6 | 6.4 | 0.00 | 0.00 | 0.00 | 89 | 1019.1 |
| 20260506133529 | 11 | 297 | 3.2 | 6.4 | 0.00 | 0.00 | 0.00 | 89 | 1019.1 |
| 20260506133046 | 11 | 290 | 1.6 | 4.8 | 0.00 | 0.00 | 0.00 | 89 | 1019.0 |
| 20260506132532 | 11 | 290 | 1.6 | 4.8 | 0.00 | 0.00 | 0.00 | 89 | 1018.9 |
| 20260506132032 | 11 | 288 | 1.6 | 4.8 | 0.00 | 0.00 | 0.00 | 89 | 1018.7 |
| 20260506131602 | 11 | 0 | 1.6 | 4.8 | 0.00 | 0.00 | 0.00 | 89 | 1018.7 |
| 20260506131029 | 11 | 286 | 1.6 | 4.8 | 0.00 | 0.00 | 0.00 | 89 | 1018.7 |
| 20260506130529 | 11 | 0 | 0.0 | 4.8 | 0.00 | 0.00 | 0.00 | 89 | 1018.8 |
| 20260506130059 | 11 | 284 | 1.6 | 4.8 | 0.00 | 0.00 | 0.00 | 90 | 1018.7 |
| 20260506125532 | 11 | 0 | 1.6 | 4.8 | 0.00 | 0.00 | 0.00 | 90 | 1018.8 |
| 20260506125033 | 11 | 0 | 0.0 | 6.4 | 0.00 | 0.00 | 0.00 | 90 | 1018.6 |
| 20260506124552 | 11 | 278 | 1.6 | 6.4 | 0.00 | 0.00 | 0.00 | 90 | 1018.5 |
| 20260506124029 | 11 | 281 | 3.2 | 6.4 | 0.00 | 0.00 | 0.00 | 90 | 1018.5 |
| 20260506123529 | 11 | 231 | 0.0 | 4.8 | 0.00 | 0.00 | 0.00 | 90 | 1018.6 |
| 20260506123040 | 11 | 0 | 0.0 | 3.2 | 0.00 | 0.00 | 0.00 | 90 | 1018.6 |
| 20260506122528 | 11 | 0 | 1.6 | 3.2 | 0.00 | 0.00 | 0.00 | 90 | 1018.6 |
| 20260506122028 | 11 | 0 | 0.0 | 0.0 | 0.00 | 0.00 | 0.00 | 90 | 1018.6 |
| 20260506121537 | 11 | 0 | 0.0 | 3.2 | 0.00 | 0.00 | 0.00 | 90 | 1018.5 |
| 20260506121029 | 10 | 0 | 0.0 | 3.2 | 0.00 | 0.00 | 0.00 | 90 | 1018.5 |
| 20260506120531 | 10 | 221 | 0.0 | 3.2 | 0.00 | 0.00 | 0.00 | 90 | 1018.5 |
| 20260506120045 | 10 | 0 | 0.0 | 0.0 | 0.00 | 0.00 | 0.00 | 90 | 1018.4 |
| 20260506115529 | 11 | 0 | 0.0 | 0.0 | 0.00 | 0.03 | 0.00 | 90 | 1018.4 |
| 20260506115028 | 11 | 0 | 0.0 | 4.8 | 0.00 | 0.03 | 0.00 | 90 | 1018.4 |
| 20260506114544 | 11 | 0 | 0.0 | 4.8 | 0.00 | 0.03 | 0.00 | 90 | 1018.3 |
| 20260506114028 | 11 | 219 | 1.6 | 6.4 | 0.00 | 0.03 | 0.00 | 89 | 1018.2 |
| 20260506113528 | 11 | 219 | 1.6 | 6.4 | 0.00 | 0.03 | 0.00 | 89 | 1018.3 |
| 20260506113052 | 11 | 219 | 1.6 | 6.4 | 0.00 | 0.03 | 0.00 | 89 | 1018.2 |
| 20260506112529 | 11 | 0 | 0.0 | 0.0 | 0.00 | 0.03 | 0.00 | 89 | 1018.3 |
| 20260506112029 | 11 | 0 | 0.0 | 0.0 | 0.00 | 0.03 | 0.00 | 89 | 1018.3 |
| 20260506111542 | 11 | 0 | 0.0 | 0.0 | 0.00 | 0.03 | 0.00 | 89 | 1018.3 |
| 20260506111029 | 11 | 0 | 0.0 | 0.0 | 0.00 | 0.03 | 0.00 | 90 | 1018.3 |
| 20260506110531 | 11 | 0 | 0.0 | 0.0 | 0.00 | 0.03 | 0.00 | 90 | 1018.2 |
| 20260506110047 | 11 | 0 | 0.0 | 0.0 | 0.00 | 0.03 | 0.00 | 90 | 1018.2 |
| 20260506105529 | 11 | 0 | 0.0 | 0.0 | 0.00 | 0.05 | 0.00 | 90 | 1018.2 |
| 20260506105031 | 11 | 0 | 0.0 | 0.0 | 0.00 | 0.05 | 0.00 | 90 | 1018.2 |
| 20260506104547 | 11 | 0 | 0.0 | 0.0 | 0.00 | 0.05 | 0.00 | 90 | 1018.1 |
| 20260506104028 | 11 | 0 | 0.0 | 0.0 | 0.00 | 0.05 | 0.00 | 90 | 1018.1 |
| 20260506103529 | 11 | 0 | 0.0 | 3.2 | 0.00 | 0.05 | 0.00 | 90 | 1018.1 |
| 20260506103050 | 11 | 0 | 0.0 | 4.8 | 0.00 | 0.05 | 0.00 | 90 | 1018.0 |
| 20260506102529 | 11 | 0 | 0.0 | 4.8 | 0.00 | 0.05 | 0.00 | 90 | 1018.0 |
| 20260506102029 | 11 | 219 | 1.6 | 4.8 | 0.00 | 0.05 | 0.00 | 90 | 1018.0 |
| 20260506101555 | 11 | 226 | 0.0 | 4.8 | 0.00 | 0.05 | 0.00 | 90 | 1017.9 |
| 20260506101028 | 11 | 226 | 0.0 | 4.8 | 0.00 | 0.05 | 0.00 | 90 | 1018.0 |
| 20260506100529 | 11 | 225 | 1.6 | 4.8 | 0.00 | 0.05 | 0.00 | 90 | 1018.0 |
| 20260506100101 | 11 | 227 | 0.0 | 4.8 | 0.00 | 0.05 | 0.00 | 90 | 1018.0 |
| 20260506095529 | 11 | 224 | 0.0 | 4.8 | 0.00 | 0.05 | 0.00 | 90 | 1018.0 |
| 20260506095033 | 11 | 0 | 0.0 | 4.8 | 0.00 | 0.05 | 0.00 | 90 | 1018.0 |
| 20260506094542 | 11 | 0 | 0.0 | 1.6 | 0.00 | 0.05 | 0.00 | 90 | 1018.0 |
| 20260506094029 | 11 | 0 | 0.0 | 1.6 | 0.00 | 0.05 | 0.00 | 90 | 1018.1 |
| 20260506093529 | 11 | 0 | 0.0 | 0.0 | 0.00 | 0.05 | 0.00 | 89 | 1018.0 |
| 20260506093043 | 11 | 0 | 0.0 | 3.2 | 0.00 | 0.05 | 0.00 | 89 | 1018.1 |
| 20260506092530 | 11 | 0 | 0.0 | 3.2 | 0.00 | 0.05 | 0.00 | 89 | 1018.1 |
| 20260506092029 | 11 | 212 | 0.0 | 4.8 | 0.00 | 0.05 | 0.00 | 89 | 1017.9 |
| 20260506091539 | 11 | 0 | 0.0 | 6.4 | 0.00 | 0.05 | 0.00 | 89 | 1017.9 |
| 20260506091032 | 11 | 211 | 3.2 | 6.4 | 0.00 | 0.05 | 0.00 | 89 | 1018.0 |
| 20260506090528 | 11 | 207 | 1.6 | 6.4 | 0.00 | 0.05 | 0.00 | 89 | 1018.0 |
| 20260506090046 | 11 | 0 | 0.0 | 4.8 | 0.00 | 0.05 | 0.00 | 89 | 1018.0 |
| 20260506085531 | 11 | 259 | 0.0 | 4.8 | 0.00 | 0.08 | 0.00 | 89 | 1018.0 |
| 20260506085028 | 11 | 252 | 0.0 | 4.8 | 0.00 | 0.08 | 0.00 | 89 | 1017.9 |
| 20260506084605 | 11 | 0 | 1.6 | 4.8 | 0.00 | 0.08 | 0.00 | 89 | 1018.0 |
| 20260506084029 | 11 | 190 | 0.0 | 4.8 | 0.00 | 0.08 | 0.00 | 89 | 1018.0 |
| 20260506083529 | 11 | 188 | 0.0 | 4.8 | 0.00 | 0.08 | 0.00 | 89 | 1017.9 |
| 20260506083044 | 11 | 0 | 0.0 | 6.4 | 0.00 | 0.08 | 0.00 | 89 | 1018.0 |
| 20260506082533 | 11 | 208 | 0.0 | 9.7 | 0.00 | 0.08 | 0.00 | 89 | 1018.0 |
| 20260506082033 | 11 | 198 | 1.6 | 9.7 | 0.00 | 0.08 | 0.00 | 89 | 1018.1 |
| 20260506081547 | 11 | 235 | 1.6 | 9.7 | 0.00 | 0.08 | 0.00 | 88 | 1018.0 |
| 20260506081030 | 12 | 223 | 4.8 | 9.7 | 0.00 | 0.08 | 0.00 | 89 | 1018.0 |
| 20260506080530 | 12 | 259 | 0.0 | 6.4 | 0.00 | 0.08 | 0.00 | 89 | 1018.1 |
| 20260506073048 | 12 | 234 | 1.6 | 12.9 | 0.00 | 0.08 | 0.00 | 89 | 1017.8 |
| 20260506072530 | 12 | 267 | 3.2 | 12.9 | 0.00 | 0.08 | 0.00 | 88 | 1017.8 |
| 20260506072028 | 12 | 261 | 4.8 | 12.9 | 0.00 | 0.08 | 0.00 | 88 | 1017.9 |
| 20260506071545 | 12 | 276 | 1.6 | 9.7 | 0.00 | 0.08 | 0.00 | 88 | 1017.8 |
| 20260506071030 | 12 | 273 | 1.6 | 6.4 | 0.00 | 0.08 | 0.00 | 88 | 1017.7 |
| 20260506070529 | 12 | 279 | 3.2 | 6.4 | 0.00 | 0.08 | 0.00 | 88 | 1017.6 |
| 20260506062029 | 11 | 263 | 3.2 | 12.9 | 0.00 | 0.08 | 0.08 | 87 | 1017.5 |
| 20260506061545 | 11 | 222 | 3.2 | 9.7 | 0.00 | 0.08 | 0.08 | 87 | 1017.4 |
| 20260506061029 | 11 | 251 | 3.2 | 8.0 | 0.00 | 0.08 | 0.08 | 87 | 1017.4 |
| 20260506060529 | 11 | 215 | 3.2 | 9.7 | 0.00 | 0.08 | 0.08 | 87 | 1017.3 |
| 20260506051029 | 11 | 217 | 4.8 | 9.7 | 0.00 | 0.08 | 0.08 | 87 | 1017.1 |
| 20260506050529 | 11 | 205 | 4.8 | 14.5 | 0.00 | 0.08 | 0.08 | 87 | 1017.0 |
| 20260506045029 | 11 | 194 | 3.2 | 11.3 | 0.00 | 0.08 | 0.08 | 87 | 1016.8 |
| 20260506044625 | 11 | 214 | 4.8 | 9.7 | 0.00 | 0.08 | 0.08 | 87 | 1016.8 |
| 20260506044031 | 12 | 234 | 4.8 | 9.7 | 0.00 | 0.08 | 0.08 | 87 | 1016.7 |
| 20260506043529 | 12 | 226 | 3.2 | 11.3 | 0.00 | 0.08 | 0.08 | 87 | 1016.7 |
| 20260506043046 | 12 | 256 | 3.2 | 11.3 | 0.00 | 0.08 | 0.08 | 87 | 1016.7 |
| 20260506042529 | 12 | 246 | 3.2 | 9.7 | 0.00 | 0.08 | 0.08 | 87 | 1016.7 |
| 20260506042028 | 12 | 239 | 4.8 | 9.7 | 0.00 | 0.08 | 0.08 | 87 | 1016.6 |
| 20260506041557 | 12 | 231 | 3.2 | 9.7 | 0.00 | 0.08 | 0.08 | 87 | 1016.5 |
| 20260506041030 | 12 | 225 | 4.8 | 11.3 | 0.00 | 0.08 | 0.08 | 87 | 1016.5 |
| 20260506040529 | 12 | 259 | 4.8 | 12.9 | 0.00 | 0.08 | 0.08 | 87 | 1016.4 |
| 20260506040042 | 12 | 220 | 3.2 | 12.9 | 0.00 | 0.08 | 0.08 | 86 | 1016.3 |
| 20260506035530 | 12 | 251 | 3.2 | 12.9 | 0.00 | 0.08 | 0.08 | 86 | 1016.2 |
| 20260506035029 | 12 | 209 | 4.8 | 12.9 | 0.00 | 0.08 | 0.08 | 86 | 1016.2 |
| 20260506034621 | 12 | 234 | 3.2 | 9.7 | 0.00 | 0.08 | 0.08 | 86 | 1016.2 |
| 20260506034029 | 12 | 228 | 3.2 | 11.3 | 0.00 | 0.08 | 0.08 | 86 | 1016.1 |
| 20260506033529 | 12 | 227 | 3.2 | 12.9 | 0.00 | 0.08 | 0.08 | 86 | 1016.1 |
| 20260506033039 | 12 | 219 | 4.8 | 12.9 | 0.00 | 0.08 | 0.08 | 86 | 1016.0 |
| 20260506032529 | 12 | 223 | 3.2 | 14.5 | 0.00 | 0.08 | 0.08 | 86 | 1015.9 |
| 20260506032029 | 12 | 240 | 4.8 | 14.5 | 0.00 | 0.08 | 0.08 | 86 | 1015.9 |
| 20260506031541 | 12 | 236 | 3.2 | 14.5 | 0.00 | 0.08 | 0.08 | 85 | 1015.9 |
| 20260506031032 | 12 | 217 | 4.8 | 9.7 | 0.00 | 0.08 | 0.08 | 85 | 1015.8 |
| 20260506030528 | 12 | 271 | 3.2 | 8.0 | 0.00 | 0.08 | 0.08 | 85 | 1015.7 |
| 20260506030043 | 12 | 218 | 3.2 | 9.7 | 0.00 | 0.08 | 0.08 | 85 | 1015.7 |
| 20260506025531 | 12 | 236 | 3.2 | 9.7 | 0.00 | 0.08 | 0.08 | 85 | 1015.7 |
| 20260506025028 | 12 | 259 | 3.2 | 11.3 | 0.00 | 0.08 | 0.08 | 84 | 1015.5 |
| 20260506024543 | 12 | 238 | 3.2 | 11.3 | 0.00 | 0.08 | 0.08 | 84 | 1015.5 |
| 20260506024028 | 12 | 233 | 3.2 | 11.3 | 0.00 | 0.08 | 0.08 | 84 | 1015.5 |
| 20260506023529 | 12 | 283 | 4.8 | 14.5 | 0.00 | 0.08 | 0.08 | 83 | 1015.4 |
| 20260506023101 | 13 | 246 | 3.2 | 14.5 | 0.00 | 0.08 | 0.08 | 83 | 1015.2 |
| 20260506022529 | 13 | 271 | 4.8 | 14.5 | 0.00 | 0.08 | 0.08 | 82 | 1015.2 |
| 20260506022029 | 13 | 255 | 4.8 | 12.9 | 0.00 | 0.08 | 0.08 | 82 | 1015.2 |
| 20260506021538 | 13 | 262 | 3.2 | 14.5 | 0.00 | 0.08 | 0.08 | 81 | 1015.2 |
| 20260506021029 | 13 | 276 | 4.8 | 14.5 | 0.00 | 0.08 | 0.08 | 82 | 1015.2 |
| 20260506020528 | 13 | 242 | 4.8 | 17.7 | 0.00 | 0.08 | 0.08 | 81 | 1015.3 |
| 20260506020039 | 13 | 281 | 6.4 | 19.3 | 0.00 | 0.08 | 0.08 | 80 | 1015.3 |
| 20260506015529 | 13 | 231 | 4.8 | 19.3 | 0.00 | 0.08 | 0.08 | 79 | 1015.3 |
| 20260506015031 | 14 | 255 | 3.2 | 14.5 | 0.00 | 0.08 | 0.08 | 80 | 1015.3 |
| 20260506014545 | 14 | 226 | 4.8 | 14.5 | 0.00 | 0.08 | 0.08 | 78 | 1015.3 |
| 20260506014028 | 14 | 217 | 4.8 | 17.7 | 0.00 | 0.08 | 0.08 | 78 | 1015.3 |
| 20260506013528 | 14 | 211 | 8.0 | 17.7 | 0.00 | 0.08 | 0.08 | 78 | 1015.3 |